TimePST,TemperatureF,Dew PointF,Humidity,Sea Level PressureIn,VisibilityMPH,Wind Direction,Wind SpeedMPH,Gust SpeedMPH,PrecipitationIn,Events,Conditions,WindDirDegrees,DateUTC
12:53 AM,41.0,32.0,70,29.93,10.0,South,6.9,-,N/A,,Overcast,180,2013-02-23 08:53:00
1:53 AM,42.1,33.1,70,29.95,10.0,SSW,11.5,18.4,N/A,,Overcast,200,2013-02-23 09:53:00
2:53 AM,42.1,34.0,73,29.96,10.0,South,9.2,-,N/A,,Overcast,180,2013-02-23 10:53:00
3:53 AM,41.0,35.1,79,29.97,10.0,SSE,9.2,17.3,N/A,,Overcast,160,2013-02-23 11:53:00
4:53 AM,41.0,35.1,79,30.01,10.0,SSE,5.8,-,N/A,,Overcast,160,2013-02-23 12:53:00
5:10 AM,41.0,35.6,81,30.01,10.0,SE,9.2,-,N/A,,Mostly Cloudy,130,2013-02-23 13:10:00
5:25 AM,41.0,35.6,81,30.02,10.0,SE,8.1,-,N/A,,Mostly Cloudy,140,2013-02-23 13:25:00
5:53 AM,41.0,35.1,79,30.03,10.0,SE,9.2,-,N/A,,Mostly Cloudy,140,2013-02-23 13:53:00
6:31 AM,41.0,33.8,76,30.05,10.0,SSE,5.8,-,N/A,,Mostly Cloudy,150,2013-02-23 14:31:00
6:53 AM,39.9,34.0,79,30.06,10.0,SE,6.9,-,N/A,,Mostly Cloudy,130,2013-02-23 14:53:00
7:53 AM,42.1,35.1,76,30.10,10.0,SE,6.9,-,N/A,,Overcast,130,2013-02-23 15:53:00
8:53 AM,43.0,36.0,76,30.13,10.0,SE,9.2,-,N/A,,Overcast,140,2013-02-23 16:53:00
9:53 AM,44.1,35.1,71,30.16,10.0,SE,8.1,-,N/A,,Mostly Cloudy,130,2013-02-23 17:53:00
10:53 AM,45.0,36.0,71,30.19,10.0,SSE,9.2,-,N/A,,Overcast,150,2013-02-23 18:53:00
11:53 AM,46.9,35.1,63,30.21,10.0,SSE,8.1,-,N/A,,Overcast,160,2013-02-23 19:53:00
12:53 PM,48.0,35.1,61,30.20,10.0,Variable,4.6,-,N/A,,Overcast,0,2013-02-23 20:53:00
1:53 PM,50.0,35.1,57,30.22,10.0,Variable,4.6,-,N/A,,Overcast,0,2013-02-23 21:53:00
2:53 PM,51.1,34.0,52,30.24,10.0,SSW,5.8,-,N/A,,Mostly Cloudy,200,2013-02-23 22:53:00
3:53 PM,50.0,33.1,52,30.25,10.0,Calm,Calm,-,N/A,,Mostly Cloudy,0,2013-02-23 23:53:00
4:53 PM,48.0,34.0,58,30.26,10.0,ENE,6.9,-,N/A,,Mostly Cloudy,60,2013-02-24 00:53:00
5:53 PM,46.9,35.1,63,30.29,10.0,ENE,4.6,-,N/A,,Scattered Clouds,60,2013-02-24 01:53:00
6:53 PM,46.0,34.0,63,30.31,10.0,ENE,6.9,-,N/A,,Overcast,70,2013-02-24 02:53:00
7:53 PM,46.0,34.0,63,30.34,10.0,ESE,4.6,-,N/A,,Overcast,110,2013-02-24 03:53:00
8:53 PM,45.0,34.0,65,30.35,10.0,East,5.8,-,N/A,,Overcast,100,2013-02-24 04:53:00
9:53 PM,43.0,32.0,65,30.37,10.0,SE,8.1,-,N/A,,Overcast,130,2013-02-24 05:53:00
10:53 PM,42.1,33.1,70,30.38,10.0,SE,10.4,-,N/A,,Overcast,140,2013-02-24 06:53:00
11:53 PM,42.1,33.1,70,30.38,10.0,SE,9.2,-,N/A,,Overcast,140,2013-02-24 07:53:00